Location: *
(60.1759°S, 155.0663°W)
Time: 21:01:57
(UTC+00:00)

NOAA 6 - Pass Details

Date: 17 September 2019
Orbit: 773 x 786 km, 98.6° (Epoch: 17 October)

Event Time Altitude Azimuth Distance (km) Brightness Sun altitude
Rises 14:36:16 0° 16° (NNE) 3,284 7.2 -13.9°
Reaches altitude 10° 14:38:35 10° 14° (NNE) 2,360 6.5 -13.7°
Maximum altitude 14:43:49 78° 287° (WNW) 820 4.0 -13.0°
Drops below altitude 10° 14:49:06 10° 200° (SSW) 2,377 6.5 -12.4°
Sets 14:51:26 0° 198° (SSW) 3,309 7.3 -12.1°
